Simultaneous Nadir Overpasses (SNOs) Predictions

Prediction of SNOs between LANDSAT-8 and METOP-B Satellite Orbit:

Table of predicted SNOs for the next 14.0 days since TLE Epoch: 4/27/2024
Index Date (LANDSAT-8) Time (LANDSAT-8) Lat,Lon (LANDSAT-8) SZA (LANDSAT-8 ) Date (METOP-B) Time (METOP-B) Lat,Lon (METOP-B) SZA (METOP-B ) Distance(km) Time Diff (sec)
1 04/28/2024 19:33:46 -81.32, 108.99 110.78 04/28/2024 19:33:36 -81.32, 109.02 110.78 0.83 10
2 04/28/2024 20:23:11 81.34, -82.90 69.28 04/28/2024 20:24:15 81.34, -82.90 69.31 0.56 64
3 05/01/2024 15:07:57 -81.32, 175.48 111.62 05/01/2024 15:07:54 -81.32, 175.47 111.62 0.40 3
4 05/01/2024 15:57:22 81.34, -16.44 68.44 05/01/2024 15:58:33 81.34, -16.48 68.46 0.91 71
5 05/04/2024 09:52:40 81.32, 74.27 67.58 05/04/2024 09:51:32 81.31, 74.12 67.53 2.46 68
6 05/04/2024 10:42:06 -81.33,-117.78 112.39 05/04/2024 10:42:11 -81.33,-117.88 112.40 1.99 5
7 05/07/2024 05:26:47 81.32, 140.86 66.82 05/07/2024 05:25:47 81.32, 140.93 66.80 1.14 60
8 05/07/2024 06:16:14 -81.32, -51.54 113.20 05/07/2024 06:16:27 -81.33, -51.44 113.18 1.81 13
9 05/10/2024 01:00:54 81.33,-152.66 66.08 05/10/2024 01:00:04 81.32,-152.85 66.03 3.30 50



Historial Predications of SNOs between LANDSAT-8 and METOP-B
